Location: Quaker Farms
(41.4276°N, 73.1557°W)
Time: 23:14:56
(UTC+00:00)

Vanguard 1 - Pass Details

Date: 14 June 2021
Orbit: 651 x 3832 km, 34.2° (Epoch: 26 July)

Event Time Altitude Azimuth Distance (km) Brightness Sun altitude
Rises 04:49:40 0° 251° (WSW) 7,728 14.5 -25.3°
Reaches altitude 10° 04:55:27 10° 248° (WSW) 6,416 14.0 -25.3°
Maximum altitude 05:13:47 61° 175° (S) 2,521 11.7 -25.1°
Drops below altitude 10° 05:23:47 10° 98° (E) 3,711 13.0 -24.9°
Sets 05:26:12 0° 94° (E) 4,395 13.5 -24.8°
